QPF
0.00 0.00 0.00 0.00 0.00 0.00 0.00 0.00 0.00 0.00 0.00 0.00 0.00 0.00 0.01 0.01 0.01 0.02 0.03 0.03 0.04 0.05 0.07 0.08 0.10 0.09 0.08 0.09 0.10 0.09 0.10 0.14 0.20 0.24 0.19 0.16 0.14 0.14 0.14 0.16 0.15 0.12 0.09 0.09
0.00 0.00 0.00 0.00 0.00 0.00 0.00 0.00 0.00 0.00 0.00 0.00 0.00 0.00 0.01 0.02 0.03 0.03 0.03 0.03 0.04 0.08 0.09 0.08 0.08 0.07 0.07 0.08 0.07 0.08 0.08 0.09 0.12 0.14 0.14 0.13 0.13 0.14 0.14 0.14 0.14 0.14 0.13 0.13
0.00 0.00 0.00 0.00 0.00 0.00 0.00 0.00 0.00 0.00 0.00 0.00 0.00 0.00 0.01 0.01 0.02 0.02 0.03 0.04 0.06 0.09 0.10 0.09 0.07 0.06 0.04 0.04 0.06 0.06 0.06 0.05 0.06 0.07 0.12 0.14 0.17 0.17 0.16 0.15 0.16 0.18 0.17 0.16
0.00 0.00 0.00 0.00 0.00 0.00 0.00 0.00 0.00 0.00 0.00 0.00 0.00 0.00 0.01 0.01 0.01 0.01 0.02 0.03 0.04 0.07 0.06 0.06 0.05 0.04 0.02 0.03 0.04 0.06 0.06 0.05 0.04 0.06 0.08 0.09 0.12 0.16 0.21 0.21 0.19 0.20 0.19 0.18
0.00 0.00 0.00 0.00 0.00 0.00 0.00 0.00 0.00 0.00 0.00 0.00 0.00 0.00 0.00 0.00 0.01 0.01 0.02 0.02 0.02 0.03 0.04 0.04 0.03 0.02 0.02 0.02 0.04 0.06 0.06 0.07 0.06 0.07 0.08 0.09 0.11 0.14 0.18 0.19 0.18 0.20 0.20 0.17
0.00 0.00 0.00 0.00 0.00 0.00 0.00 0.00 0.00 0.01 0.00 0.00 0.00 0.00 0.00 0.01 0.01 0.01 0.01 0.02 0.02 0.03 0.04 0.02 0.01 0.01 0.03 0.05 0.08 0.09 0.09 0.07 0.08 0.08 0.09 0.10 0.11 0.12 0.16 0.17 0.19 0.18 0.18 0.15
0.00 0.00 0.00 0.00 0.00 0.00 0.00 0.00 0.00 0.00 0.00 0.00 0.00 0.00 0.00 0.00 0.01 0.01 0.01 0.01 0.03 0.03 0.02 0.02 0.02 0.02 0.05 0.07 0.09 0.08 0.06 0.05 0.06 0.07 0.09 0.11 0.11 0.13 0.15 0.16 0.16 0.16 0.16 0.13
0.00 0.00 0.00 0.00 0.00 0.00 0.00 0.00 0.00 0.00 0.00 0.00 0.00 0.00 0.00 0.00 0.00 0.00 0.00 0.01 0.03 0.03 0.03 0.03 0.04 0.06 0.07 0.07 0.07 0.06 0.05 0.05 0.06 0.07 0.09 0.12 0.13 0.13 0.14 0.16 0.16 0.15 0.14 0.11
0.00 0.00 0.00 0.00 0.00 0.00 0.00 0.00 0.00 0.00 0.00 0.00 0.00 0.00 0.00 0.00 0.00 0.01 0.01 0.03 0.05 0.03 0.03 0.04 0.06 0.07 0.07 0.07 0.07 0.07 0.06 0.05 0.05 0.05 0.06 0.07 0.08 0.09 0.09 0.10 0.11 0.12 0.10 0.09
0.00 0.00 0.00 0.00 0.00 0.00 0.00 0.00 0.00 0.00 0.00 0.00 0.00 0.00 0.00 0.00 0.00 0.01 0.01 0.03 0.05 0.05 0.03 0.03 0.04 0.08 0.09 0.08 0.09 0.07 0.08 0.08 0.05 0.05 0.05 0.05 0.05 0.06 0.07 0.09 0.10 0.10 0.09 0.08
0.00 0.00 0.00 0.00 0.00 0.00 0.00 0.00 0.00 0.00 0.00 0.01 0.00 0.00 0.00 0.00 0.01 0.02 0.02 0.04 0.04 0.04 0.03 0.02 0.04 0.06 0.09 0.11 0.11 0.09 0.08 0.09 0.10 0.09 0.08 0.06 0.06 0.08 0.08 0.09 0.10 0.11 0.11 0.09
0.00 0.00 0.00 0.00 0.00 0.00 0.00 0.00 0.01 0.01 0.01 0.00 0.01 0.00 0.01 0.00 0.01 0.03 0.02 0.03 0.04 0.03 0.02 0.02 0.03 0.04 0.07 0.10 0.12 0.10 0.08 0.07 0.08 0.10 0.10 0.12 0.16 0.13 0.10 0.08 0.07 0.09 0.10 0.11
0.00 0.00 0.00 0.00 0.00 0.00 0.00 0.01 0.01 0.01 0.01 0.00 0.01 0.01 0.01 0.01 0.01 0.01 0.01 0.02 0.02 0.02 0.02 0.03 0.04 0.05 0.09 0.13 0.11 0.09 0.09 0.09 0.07 0.07 0.06 0.06 0.08 0.09 0.07 0.08 0.06 0.07 0.07 0.10
0.00 0.00 0.00 0.00 0.00 0.00 0.00 0.00 0.00 0.01 0.01 0.01 0.01 0.01 0.00 0.01 0.01 0.01 0.01 0.01 0.01 0.01 0.02 0.03 0.04 0.05 0.08 0.12 0.12 0.09 0.10 0.16 0.13 0.08 0.06 0.05 0.05 0.04 0.05 0.06 0.06 0.05 0.05 0.08
0.00 0.00 0.00 0.00 0.00 0.00 0.01 0.01 0.01 0.01 0.02 0.02 0.01 0.01 0.01 0.01 0.01 0.02 0.02 0.01 0.01 0.01 0.02 0.02 0.02 0.03 0.05 0.06 0.07 0.08 0.09 0.13 0.18 0.14 0.10 0.08 0.05 0.05 0.04 0.04 0.05 0.06 0.06 0.07
0.00 0.00 0.00 0.00 0.00 0.00 0.01 0.01 0.01 0.01 0.01 0.02 0.01 0.01 0.01 0.01 0.01 0.01 0.01 0.01 0.01 0.01 0.02 0.02 0.02 0.02 0.02 0.03 0.08 0.09 0.09 0.11 0.14 0.15 0.12 0.08 0.06 0.04 0.04 0.05 0.05 0.04 0.04 0.05
0.01 0.00 0.00 0.00 0.00 0.00 0.00 0.01 0.01 0.02 0.02 0.02 0.01 0.01 0.01 0.01 0.01 0.02 0.02 0.02 0.02 0.02 0.03 0.03 0.03 0.02 0.02 0.02 0.04 0.06 0.09 0.09 0.10 0.10 0.09 0.08 0.06 0.05 0.05 0.04 0.04 0.04 0.04 0.04
0.01 0.00 0.00 0.00 0.00 0.00 0.01 0.01 0.02 0.02 0.02 0.02 0.01 0.01 0.01 0.01 0.02 0.03 0.03 0.04 0.03 0.02 0.02 0.02 0.02 0.02 0.02 0.02 0.02 0.04 0.05 0.07 0.07 0.07 0.06 0.07 0.06 0.05 0.04 0.03 0.03 0.03 0.04 0.05
0.01 0.00 0.00 0.00 0.01 0.01 0.01 0.01 0.01 0.02 0.02 0.02 0.02 0.02 0.02 0.03 0.03 0.04 0.05 0.05 0.03 0.02 0.01 0.01 0.01 0.01 0.01 0.01 0.01 0.02 0.03 0.04 0.06 0.06 0.05 0.04 0.03 0.04 0.05 0.03 0.02 0.02 0.03 0.04
0.00 0.00 0.01 0.01 0.02 0.02 0.02 0.01 0.01 0.01 0.02 0.01 0.01 0.01 0.02 0.03 0.04 0.04 0.05 0.05 0.03 0.01 0.01 0.01 0.00 0.00 0.01 0.01 0.01 0.02 0.03 0.05 0.06 0.07 0.05 0.04 0.03 0.03 0.03 0.03 0.02 0.02 0.03 0.03
0.01 0.01 0.01 0.01 0.02 0.02 0.01 0.01 0.01 0.02 0.01 0.01 0.02 0.02 0.03 0.05 0.05 0.03 0.02 0.02 0.01 0.01 0.01 0.01 0.00 0.00 0.01 0.01 0.01 0.02 0.03 0.04 0.06 0.08 0.07 0.07 0.06 0.04 0.03 0.05 0.04 0.03 0.02 0.02
0.01 0.01 0.01 0.01 0.01 0.02 0.01 0.01 0.02 0.02 0.01 0.02 0.02 0.04 0.05 0.06 0.04 0.02 0.01 0.01 0.01 0.01 0.01 0.01 0.01 0.00 0.01 0.02 0.02 0.02 0.04 0.06 0.08 0.10 0.09 0.08 0.07 0.05 0.04 0.04 0.05 0.04 0.01 0.01
0.01 0.02 0.02 0.02 0.02 0.01 0.01 0.02 0.03 0.03 0.02 0.02 0.03 0.03 0.04 0.04 0.03 0.02 0.01 0.01 0.02 0.02 0.01 0.01 0.01 0.01 0.02 0.03 0.02 0.03 0.04 0.05 0.09 0.11 0.09 0.07 0.06 0.05 0.04 0.03 0.03 0.03 0.01 0.01
0.00 0.01 0.01 0.01 0.01 0.01 0.02 0.02 0.02 0.02 0.02 0.03 0.03 0.03 0.03 0.03 0.02 0.02 0.01 0.01 0.01 0.02 0.01 0.01 0.01 0.01 0.03 0.03 0.02 0.02 0.02 0.02 0.05 0.07 0.06 0.05 0.04 0.04 0.03 0.03 0.03 0.02 0.01 0.01
0.00 0.01 0.01 0.01 0.01 0.01 0.02 0.02 0.02 0.03 0.03 0.03 0.03 0.04 0.04 0.03 0.02 0.02 0.02 0.02 0.01 0.01 0.01 0.01 0.01 0.02 0.03 0.03 0.02 0.02 0.02 0.03 0.04 0.04 0.03 0.03 0.03 0.03 0.02 0.02 0.02 0.01 0.01 0.01
0.00 0.01 0.02 0.02 0.02 0.02 0.01 0.01 0.02 0.04 0.04 0.03 0.03 0.03 0.04 0.03 0.03 0.03 0.02 0.01 0.01 0.01 0.01 0.00 0.01 0.03 0.04 0.03 0.03 0.03 0.03 0.04 0.03 0.03 0.03 0.03 0.03 0.02 0.01 0.01 0.01 0.01 0.01 0.01
MSLP
1013.12 1013.81 1014.31 1014.59 1014.67 1014.59 1014.38 1014.07 1013.71 1013.27 1012.76 1012.15 1011.44 1010.62 1009.71 1008.76 1007.83 1006.98 1006.26 1005.71 1005.35 1005.16 1005.11 1005.17 1005.29 1005.44 1005.60 1005.77 1005.96 1006.19 1006.46 1006.76 1007.08 1007.39 1007.66 1007.86 1007.98 1008.01 1007.99 1007.95 1007.94 1008.01 1008.20 1008.52
1013.42 1013.97 1014.33 1014.51 1014.53 1014.45 1014.30 1014.12 1013.89 1013.60 1013.20 1012.67 1011.98 1011.12 1010.13 1009.07 1008.01 1007.04 1006.22 1005.60 1005.18 1004.96 1004.89 1004.92 1005.01 1005.12 1005.25 1005.40 1005.58 1005.82 1006.12 1006.48 1006.87 1007.24 1007.56 1007.78 1007.87 1007.85 1007.75 1007.61 1007.50 1007.49 1007.62 1007.91
1013.54 1013.90 1014.10 1014.16 1014.13 1014.07 1014.00 1013.94 1013.86 1013.72 1013.44 1012.98 1012.29 1011.39 1010.31 1009.13 1007.95 1006.86 1005.95 1005.26 1004.80 1004.56 1004.48 1004.52 1004.61 1004.73 1004.85 1005.00 1005.20 1005.47 1005.81 1006.22 1006.67 1007.10 1007.45 1007.69 1007.78 1007.73 1007.57 1007.37 1007.20 1007.14 1007.22 1007.48
1013.55 1013.70 1013.72 1013.66 1013.58 1013.53 1013.53 1013.59 1013.65 1013.64 1013.46 1013.05 1012.37 1011.43 1010.26 1008.96 1007.66 1006.47 1005.47 1004.73 1004.25 1004.01 1003.96 1004.03 1004.16 1004.31 1004.47 1004.65 1004.87 1005.17 1005.54 1005.99 1006.47 1006.92 1007.30 1007.55 1007.64 1007.58 1007.40 1007.18 1006.98 1006.88 1006.95 1007.19
1013.61 1013.53 1013.36 1013.17 1013.02 1012.97 1013.03 1013.18 1013.36 1013.44 1013.34 1012.98 1012.29 1011.30 1010.05 1008.66 1007.26 1005.97 1004.91 1004.13 1003.65 1003.43 1003.42 1003.55 1003.73 1003.94 1004.15 1004.37 1004.62 1004.94 1005.32 1005.77 1006.25 1006.70 1007.07 1007.31 1007.40 1007.33 1007.16 1006.94 1006.75 1006.67 1006.73 1006.97
1013.86 1013.56 1013.20 1012.87 1012.64 1012.56 1012.65 1012.86 1013.10 1013.25 1013.20 1012.85 1012.16 1011.12 1009.81 1008.34 1006.87 1005.52 1004.40 1003.60 1003.12 1002.92 1002.95 1003.13 1003.38 1003.65 1003.91 1004.17 1004.45 1004.76 1005.14 1005.56 1006.00 1006.41 1006.74 1006.96 1007.03 1006.97 1006.81 1006.62 1006.47 1006.42 1006.51 1006.76
1014.40 1013.89 1013.36 1012.89 1012.57 1012.44 1012.51 1012.74 1013.00 1013.18 1013.15 1012.81 1012.09 1011.03 1009.67 1008.15 1006.62 1005.22 1004.07 1003.24 1002.74 1002.55 1002.60 1002.82 1003.11 1003.42 1003.72 1004.01 1004.30 1004.61 1004.95 1005.33 1005.71 1006.06 1006.33 1006.50 1006.55 1006.49 1006.36 1006.21 1006.11 1006.11 1006.24 1006.51
1015.26 1014.58 1013.89 1013.29 1012.88 1012.68 1012.71 1012.90 1013.15 1013.31 1013.27 1012.92 1012.19 1011.10 1009.73 1008.18 1006.61 1005.17 1003.97 1003.10 1002.56 1002.33 1002.37 1002.57 1002.87 1003.20 1003.52 1003.83 1004.12 1004.42 1004.74 1005.06 1005.38 1005.66 1005.87 1006.00 1006.02 1005.96 1005.85 1005.75 1005.69 1005.74 1005.91 1006.20
1016.35 1015.55 1014.75 1014.05 1013.54 1013.27 1013.22 1013.35 1013.54 1013.67 1013.59 1013.22 1012.48 1011.39 1010.01 1008.45 1006.85 1005.37 1004.12 1003.17 1002.55 1002.24 1002.20 1002.35 1002.60 1002.91 1003.24 1003.55 1003.86 1004.16 1004.46 1004.76 1005.03 1005.27 1005.43 1005.52 1005.52 1005.46 1005.36 1005.29 1005.27 1005.35 1005.55 1005.85
1017.56 1016.69 1015.83 1015.06 1014.47 1014.12 1013.99 1014.03 1014.15 1014.21 1014.09 1013.68 1012.93 1011.84 1010.47 1008.91 1007.30 1005.78 1004.45 1003.39 1002.65 1002.21 1002.04 1002.08 1002.25 1002.51 1002.81 1003.13 1003.46 1003.79 1004.12 1004.42 1004.70 1004.92 1005.07 1005.14 1005.13 1005.07 1004.98 1004.92 1004.92 1005.02 1005.21 1005.51
1018.71 1017.85 1016.97 1016.17 1015.53 1015.11 1014.90 1014.85 1014.87 1014.85 1014.67 1014.23 1013.48 1012.40 1011.05 1009.50 1007.88 1006.30 1004.88 1003.70 1002.80 1002.19 1001.85 1001.74 1001.80 1001.99 1002.26 1002.60 1002.96 1003.35 1003.74 1004.10 1004.42 1004.68 1004.85 1004.93 1004.93 1004.87 1004.79 1004.73 1004.72 1004.79 1004.96 1005.22
1019.71 1018.89 1018.04 1017.25 1016.60 1016.12 1015.83 1015.69 1015.62 1015.51 1015.26 1014.78 1014.02 1012.95 1011.62 1010.09 1008.46 1006.85 1005.34 1004.03 1002.97 1002.18 1001.66 1001.38 1001.32 1001.42 1001.67 1002.02 1002.44 1002.91 1003.39 1003.85 1004.26 1004.58 1004.81 1004.92 1004.94 1004.89 1004.80 1004.72 1004.68 1004.71 1004.83 1005.04
1020.51 1019.76 1018.98 1018.23 1017.58 1017.08 1016.72 1016.49 1016.32 1016.11 1015.78 1015.26 1014.48 1013.42 1012.12 1010.61 1008.99 1007.35 1005.78 1004.36 1003.16 1002.20 1001.51 1001.08 1000.90 1000.93 1001.15 1001.52 1002.01 1002.57 1003.15 1003.72 1004.23 1004.64 1004.93 1005.09 1005.14 1005.09 1004.99 1004.88 1004.79 1004.77 1004.83 1004.97
1021.14 1020.49 1019.79 1019.10 1018.47 1017.95 1017.54 1017.21 1016.93 1016.62 1016.21 1015.62 1014.81 1013.76 1012.48 1011.01 1009.41 1007.78 1006.18 1004.70 1003.40 1002.32 1001.51 1000.97 1000.69 1000.66 1000.86 1001.25 1001.79 1002.42 1003.09 1003.75 1004.34 1004.82 1005.17 1005.37 1005.44 1005.40 1005.28 1005.14 1005.01 1004.93 1004.93 1005.01
1021.71 1021.16 1020.54 1019.91 1019.31 1018.76 1018.28 1017.87 1017.47 1017.04 1016.52 1015.85 1015.00 1013.95 1012.70 1011.27 1009.73 1008.13 1006.56 1005.07 1003.75 1002.62 1001.74 1001.14 1000.80 1000.73 1000.91 1001.30 1001.85 1002.51 1003.23 1003.93 1004.56 1005.08 1005.45 1005.67 1005.75 1005.70 1005.57 1005.40 1005.24 1005.12 1005.07 1005.11
1022.33 1021.85 1021.30 1020.71 1020.11 1019.54 1018.98 1018.46 1017.93 1017.37 1016.73 1015.97 1015.06 1014.00 1012.77 1011.41 1009.94 1008.44 1006.94 1005.53 1004.24 1003.14 1002.27 1001.65 1001.29 1001.19 1001.34 1001.69 1002.22 1002.85 1003.54 1004.21 1004.82 1005.32 1005.68 1005.89 1005.95 1005.90 1005.76 1005.58 1005.41 1005.28 1005.22 1005.25
1023.10 1022.65 1022.12 1021.54 1020.92 1020.28 1019.64 1018.99 1018.31 1017.61 1016.83 1015.97 1015.01 1013.93 1012.73 1011.44 1010.09 1008.71 1007.35 1006.06 1004.89 1003.88 1003.07 1002.48 1002.13 1002.00 1002.10 1002.39 1002.82 1003.36 1003.95 1004.52 1005.04 1005.46 1005.75 1005.92 1005.96 1005.90 1005.77 1005.61 1005.46 1005.35 1005.32 1005.37
1024.00 1023.54 1022.99 1022.37 1021.68 1020.96 1020.20 1019.41 1018.59 1017.73 1016.83 1015.87 1014.84 1013.75 1012.60 1011.40 1010.17 1008.95 1007.77 1006.66 1005.66 1004.79 1004.08 1003.55 1003.21 1003.06 1003.08 1003.25 1003.55 1003.93 1004.34 1004.75 1005.12 1005.41 1005.61 1005.71 1005.73 1005.67 1005.57 1005.46 1005.37 1005.33 1005.36 1005.47
1024.98 1024.45 1023.82 1023.11 1022.33 1021.48 1020.59 1019.66 1018.70 1017.71 1016.69 1015.64 1014.57 1013.48 1012.38 1011.29 1010.21 1009.17 1008.19 1007.28 1006.46 1005.75 1005.16 1004.70 1004.38 1004.18 1004.11 1004.14 1004.25 1004.42 1004.62 1004.82 1005.00 1005.15 1005.24 1005.28 1005.28 1005.25 1005.21 1005.18 1005.19 1005.25 1005.38 1005.58
1025.88 1025.23 1024.48 1023.65 1022.73 1021.76 1020.73 1019.67 1018.59 1017.49 1016.38 1015.28 1014.19 1013.14 1012.11 1011.13 1010.21 1009.35 1008.57 1007.86 1007.22 1006.67 1006.19 1005.79 1005.47 1005.21 1005.02 1004.88 1004.79 1004.74 1004.71 1004.70 1004.69 1004.69 1004.69 1004.69 1004.69 1004.72 1004.77 1004.85 1004.99 1005.17 1005.42 1005.74
1026.57 1025.77 1024.86 1023.87 1022.81 1021.69 1020.55 1019.38 1018.21 1017.04 1015.90 1014.79 1013.72 1012.72 1011.79 1010.94 1010.18 1009.49 1008.89 1008.36 1007.88 1007.46 1007.07 1006.70 1006.36 1006.03 1005.71 1005.40 1005.11 1004.85 1004.60 1004.40 1004.23 1004.11 1004.05 1004.04 1004.08 1004.19 1004.35 1004.57 1004.85 1005.18 1005.55 1005.98
1026.92 1025.94 1024.86 1023.71 1022.51 1021.27 1020.03 1018.79 1017.57 1016.39 1015.26 1014.19 1013.19 1012.28 1011.47 1010.75 1010.13 1009.61 1009.16 1008.76 1008.41 1008.08 1007.74 1007.39 1007.01 1006.59 1006.15 1005.69 1005.22 1004.77 1004.36 1004.00 1003.73 1003.54 1003.45 1003.46 1003.57 1003.78 1004.08 1004.44 1004.86 1005.32 1005.82 1006.35
1026.88 1025.73 1024.49 1023.19 1021.86 1020.53 1019.23 1017.96 1016.74 1015.59 1014.52 1013.53 1012.64 1011.85 1011.17 1010.59 1010.11 1009.72 1009.39 1009.10 1008.83 1008.55 1008.23 1007.86 1007.43 1006.93 1006.38 1005.79 1005.19 1004.60 1004.08 1003.63 1003.29 1003.08 1003.01 1003.08 1003.28 1003.61 1004.02 1004.52 1005.07 1005.65 1006.25 1006.85
1026.47 1025.18 1023.81 1022.40 1020.98 1019.59 1018.25 1016.99 1015.82 1014.74 1013.76 1012.89 1012.13 1011.48 1010.93 1010.49 1010.14 1009.85 1009.62 1009.40 1009.17 1008.91 1008.59 1008.19 1007.70 1007.14 1006.50 1005.82 1005.13 1004.48 1003.89 1003.41 1003.06 1002.88 1002.85 1003.00 1003.29 1003.72 1004.24 1004.85 1005.49 1006.15 1006.82 1007.47
1025.81 1024.42 1022.96 1021.48 1020.01 1018.59 1017.26 1016.04 1014.93 1013.94 1013.08 1012.34 1011.72 1011.21 1010.80 1010.48 1010.24 1010.04 1009.87 1009.70 1009.50 1009.24 1008.90 1008.47 1007.94 1007.32 1006.64 1005.92 1005.19 1004.51 1003.92 1003.45 1003.14 1003.00 1003.04 1003.25 1003.63 1004.14 1004.74 1005.41 1006.11 1006.82 1007.51 1008.18
1025.03 1023.60 1022.11 1020.59 1019.11 1017.70 1016.40 1015.23 1014.19 1013.30 1012.55 1011.93 1011.44 1011.06 1010.77 1010.57 1010.41 1010.29 1010.17 1010.03 1009.84 1009.58 1009.23 1008.78 1008.23 1007.60 1006.91 1006.18 1005.47 1004.81 1004.25 1003.83 1003.56 1003.48 1003.58 1003.86 1004.29 1004.84 1005.48 1006.17 1006.89 1007.59 1008.28 1008.93
Thickness
5760 5748 5738 5743 5745 5745 5740 5733 5727 5735 5747 5740 5736 5736 5742 5747 5746 5744 5743 5744 5743 5743 5745 5744 5743 5740 5736 5732 5729 5725 5722 5719 5715 5710 5705 5701 5698 5696 5694 5692 5690 5689 5687 5686
5744 5739 5751 5754 5750 5744 5737 5728 5726 5733 5743 5739 5731 5730 5738 5741 5740 5740 5739 5738 5738 5737 5736 5736 5734 5731 5729 5726 5723 5720 5716 5713 5709 5705 5701 5697 5693 5690 5689 5686 5684 5683 5681 5680
5740 5747 5758 5754 5746 5739 5734 5728 5727 5726 5731 5732 5726 5720 5728 5735 5737 5736 5735 5734 5733 5732 5729 5728 5727 5725 5722 5719 5717 5715 5711 5708 5704 5700 5695 5691 5688 5685 5682 5680 5678 5676 5675 5674
5743 5751 5752 5746 5742 5738 5725 5738 5733 5728 5715 5704 5712 5694 5715 5721 5723 5727 5728 5727 5726 5726 5725 5723 5721 5719 5717 5715 5713 5710 5706 5702 5698 5694 5689 5684 5681 5677 5676 5674 5672 5670 5669 5666
5739 5746 5744 5738 5740 5740 5734 5737 5729 5721 5710 5699 5699 5690 5699 5712 5713 5718 5721 5722 5721 5721 5720 5718 5717 5715 5712 5709 5706 5703 5699 5696 5693 5688 5683 5678 5675 5672 5669 5667 5665 5663 5661 5659
5741 5749 5746 5744 5746 5742 5735 5726 5716 5702 5693 5682 5693 5684 5686 5699 5708 5713 5717 5718 5718 5717 5716 5714 5712 5709 5705 5702 5699 5695 5691 5688 5685 5681 5677 5672 5669 5666 5662 5660 5659 5656 5654 5651
5724 5735 5743 5745 5734 5732 5722 5701 5680 5676 5667 5673 5689 5682 5685 5707 5711 5711 5712 5713 5713 5712 5709 5707 5704 5701 5697 5694 5690 5686 5683 5679 5677 5674 5670 5666 5663 5660 5657 5654 5652 5649 5645 5643
5702 5705 5728 5734 5728 5718 5712 5699 5673 5661 5658 5666 5679 5677 5694 5710 5711 5710 5709 5707 5706 5704 5702 5699 5697 5694 5690 5686 5683 5679 5675 5671 5669 5666 5662 5659 5656 5654 5652 5649 5645 5642 5639 5637
5696 5699 5725 5730 5729 5721 5705 5691 5688 5667 5662 5654 5664 5679 5695 5706 5704 5703 5702 5700 5697 5696 5694 5693 5691 5687 5683 5679 5676 5672 5668 5665 5662 5659 5656 5653 5651 5648 5645 5642 5640 5637 5634 5631
5702 5692 5708 5718 5722 5714 5705 5689 5671 5659 5648 5644 5657 5666 5672 5688 5690 5692 5692 5691 5690 5689 5687 5685 5683 5680 5676 5673 5669 5666 5662 5659 5656 5654 5651 5648 5646 5643 5640 5636 5634 5631 5628 5626
5697 5683 5690 5698 5697 5693 5692 5683 5666 5651 5646 5639 5637 5655 5683 5683 5684 5683 5685 5685 5684 5683 5681 5679 5676 5673 5669 5667 5664 5661 5657 5654 5652 5650 5647 5644 5641 5639 5635 5631 5628 5626 5623 5621
5686 5672 5667 5680 5694 5697 5689 5679 5662 5648 5644 5638 5633 5650 5685 5681 5680 5678 5679 5680 5679 5677 5675 5672 5668 5665 5662 5660 5658 5655 5652 5649 5647 5645 5641 5637 5634 5632 5628 5626 5623 5620 5618 5616
5679 5662 5652 5660 5669 5678 5675 5672 5663 5650 5638 5631 5629 5650 5678 5675 5674 5674 5672 5672 5671 5670 5668 5665 5661 5658 5655 5652 5651 5650 5647 5644 5641 5639 5635 5632 5629 5626 5623 5620 5618 5616 5613 5611
5676 5655 5648 5644 5651 5658 5658 5662 5659 5647 5633 5632 5638 5650 5662 5663 5664 5665 5666 5664 5663 5662 5660 5658 5654 5651 5649 5646 5644 5643 5640 5638 5636 5633 5630 5626 5624 5621 5618 5616 5613 5610 5609 5607
5664 5650 5651 5652 5657 5656 5653 5655 5655 5647 5643 5636 5644 5646 5652 5656 5657 5658 5659 5657 5656 5655 5653 5651 5649 5646 5643 5641 5639 5637 5634 5632 5630 5626 5624 5621 5619 5616 5613 5611 5608 5606 5605 5603
5651 5644 5644 5645 5653 5650 5647 5651 5652 5650 5647 5642 5642 5643 5651 5653 5653 5653 5652 5651 5650 5649 5647 5645 5643 5641 5638 5636 5633 5631 5630 5627 5625 5622 5619 5617 5614 5612 5609 5607 5604 5602 5600 5597
5638 5633 5628 5627 5637 5638 5633 5644 5645 5643 5642 5639 5633 5637 5644 5645 5646 5645 5646 5646 5645 5644 5643 5641 5639 5637 5634 5631 5629 5626 5625 5623 5620 5618 5615 5612 5610 5607 5605 5603 5601 5598 5596 5593
5629 5622 5611 5610 5619 5615 5633 5648 5646 5640 5638 5636 5633 5634 5636 5637 5639 5641 5641 5640 5640 5640 5638 5637 5635 5633 5630 5628 5626 5624 5621 5619 5617 5614 5612 5608 5605 5603 5601 5599 5597 5595 5593 5590
5628 5617 5605 5599 5602 5612 5631 5637 5634 5629 5628 5631 5628 5630 5630 5632 5634 5636 5637 5636 5635 5634 5633 5632 5631 5629 5627 5624 5623 5620 5617 5615 5613 5611 5608 5606 5603 5601 5598 5596 5594 5591 5590 5588
5621 5613 5603 5596 5596 5601 5616 5630 5634 5628 5617 5625 5623 5621 5622 5623 5619 5627 5632 5631 5630 5629 5629 5628 5627 5625 5622 5620 5618 5616 5613 5611 5609 5608 5606 5604 5601 5599 5596 5594 5591 5589 5587 5585
5604 5599 5594 5591 5589 5602 5614 5622 5624 5605 5603 5617 5617 5616 5615 5615 5616 5622 5625 5625 5625 5625 5625 5624 5623 5621 5619 5617 5614 5612 5611 5609 5608 5606 5604 5602 5600 5597 5595 5592 5589 5587 5585 5583
5592 5586 5586 5583 5584 5594 5612 5610 5602 5600 5607 5609 5612 5612 5612 5614 5617 5619 5619 5620 5620 5621 5621 5620 5618 5617 5615 5614 5612 5610 5610 5610 5608 5605 5603 5601 5598 5596 5594 5591 5588 5586 5584 5581
5586 5585 5581 5582 5589 5601 5604 5602 5603 5603 5603 5607 5608 5610 5610 5610 5613 5615 5615 5615 5616 5617 5617 5616 5614 5613 5612 5611 5610 5609 5609 5609 5607 5605 5602 5599 5597 5594 5592 5590 5587 5585 5582 5580
5584 5586 5580 5581 5593 5599 5601 5602 5603 5604 5604 5607 5608 5608 5608 5608 5610 5611 5611 5611 5611 5612 5613 5612 5611 5610 5609 5609 5609 5609 5609 5608 5606 5603 5600 5598 5595 5593 5591 5589 5586 5584 5583 5581
5576 5577 5573 5576 5588 5594 5600 5600 5601 5603 5604 5606 5608 5608 5607 5607 5608 5608 5608 5608 5609 5609 5609 5609 5608 5608 5608 5608 5608 5608 5609 5607 5604 5602 5599 5597 5595 5593 5590 5588 5586 5584 5583 5581
5573 5570 5567 5574 5585 5583 5592 5599 5599 5599 5601 5603 5605 5606 5606 5605 5605 5606 5606 5607 5607 5607 5608 5607 5607 5606 5607 5607 5607 5608 5607 5606 5604 5601 5599 5596 5594 5592 5589 5587 5585 5585 5584 5583